Location: B?ogocice
(50.2413°N, 20.2361°E)
Time: 00:40:43
(UTC+00:00)

COBE Rocket - Pass Details

Date: 15 June 2024
Orbit: 678 x 776 km, 97.1° (Epoch: 18 July)

Event Time Altitude Azimuth Distance (km) Brightness Sun altitude
Rises 00:18:26 0° 12° (NNE) 3,251 9.1 -13.2°
Reaches altitude 10° 00:20:45 10° 13° (NNE) 2,328 7.9 -13.1°
Maximum altitude 00:25:55 89° 94° (E) 784 4.0 -12.8°
Enters shadow 00:29:58 17° 194° (SSW) 1,885 5.4 -12.5°
